DateTimeUTC,F1_A11,F1_S11,BsB_S11,BsG_S11,BsR_S11,BbsB_S11,BbsG_S11,BbsR_S11,BaB_A11,BaG_A11,BaR_A11,Tu_S11,T_S11,Uu_S11,U_S11,P_S11,T1_A11
2021-07-17T12:00:00Z,00000200,20000000,,,,,,,-000.33,0000.47,0000.02,17.5,24.0,07.5,05.0,0674.3,31.0
2021-07-17T12:01:00Z,00000200,20000000,,,,,,,-000.04,-000.10,0000.07,17.5,24.0,07.5,05.0,0674.4,31.0
2021-07-17T12:02:00Z,00000200,20000000,,,,,,,0000.29,-000.15,-000.03,17.5,24.1,07.5,05.0,0674.4,31.0
2021-07-17T12:03:00Z,00000200,60000000,,,,,,,-000.00,0000.34,0000.08,17.5,24.1,07.5,05.0,0674.4,30.9
2021-07-17T12:04:00Z,00000200,40000000,0000.90,0000.90,0000.42,-000.43,0000.22,-000.08,0000.78,0000.52,0000.50,17.6,23.9,07.8,05.3,0675.4,30.9
2021-07-17T12:05:00Z,00000200,00000000,0001.47,0000.62,0000.45,0000.44,0000.13,0000.00,0000.08,0000.27,0000.61,17.7,23.9,08.0,05.5,0675.5,30.9
2021-07-17T12:06:00Z,00000200,00000000,0000.80,0000.31,0000.11,-000.08,0000.17,-000.14,-000.20,-000.27,-000.16,17.7,23.9,07.9,05.4,0675.4,30.9
2021-07-17T12:07:00Z,00000200,00000000,0001.25,0000.47,0000.72,0000.61,0000.24,0000.14,-000.09,0000.13,-000.09,17.8,23.9,07.5,05.2,0675.4,30.9
2021-07-17T12:08:00Z,00000200,00000000,0000.66,0000.57,0000.31,-000.01,0000.08,-000.02,0000.44,0000.30,0000.14,17.8,23.9,07.7,05.3,0675.4,31.0
2021-07-17T12:09:00Z,00000200,00000000,0000.98,0000.88,0000.28,0000.77,0000.11,-000.07,0000.28,0000.33,0000.20,17.8,23.9,07.8,05.3,0675.5,31.0
2021-07-17T12:10:00Z,00000200,00000000,0001.44,0000.39,0000.44,0000.06,0000.10,0000.06,0000.59,0000.34,0000.12,17.8,23.9,07.8,05.4,0675.5,31.0
2021-07-17T12:11:00Z,00000200,00000000,0000.83,0000.77,0000.43,0000.42,0000.25,-000.15,-000.11,-000.16,0000.26,17.8,23.9,08.1,05.5,0675.6,31.0
2021-07-17T12:12:00Z,00000200,00000000,0000.90,0000.42,0000.27,0000.58,0000.00,-000.15,0000.21,0000.09,-000.04,17.8,23.9,08.1,05.6,0675.5,31.0
2021-07-17T12:13:00Z,00000200,00000000,0000.90,0000.52,0000.31,0000.17,-000.00,-000.15,-000.48,-000.47,-000.17,17.8,23.9,07.9,05.4,0675.4,31.0
2021-07-17T12:14:00Z,00000200,00000000,0001.41,0000.57,0000.31,0000.65,0000.21,-000.02,0000.82,0000.77,0000.14,17.8,23.9,07.9,05.4,0675.5,31.0
2021-07-17T12:15:00Z,00000200,00000000,0001.28,0000.79,0000.54,0000.09,0000.03,-000.17,0000.03,0000.06,0000.29,17.8,23.9,08.1,05.5,0675.5,31.0
2021-07-17T12:16:00Z,00000200,00000000,0001.74,0000.40,0000.28,-000.24,0000.31,-000.13,0000.10,0000.45,0000.25,17.8,23.9,08.0,05.4,0675.5,31.0
2021-07-17T12:17:00Z,00000200,00000000,0001.42,0000.25,0000.44,0000.21,-000.01,-000.28,0000.18,-000.11,-000.09,17.8,23.9,07.9,05.4,0675.4,31.0
2021-07-17T12:18:00Z,00000200,00000000,0000.64,0000.69,0000.23,0000.06,0000.12,0000.07,0000.56,0000.43,0000.23,17.8,23.9,07.9,05.4,0675.5,31.0
2021-07-17T12:19:00Z,00000200,00000000,0000.65,0000.52,0000.23,0000.14,-000.02,-000.15,-000.02,-000.03,-000.15,17.8,23.9,08.0,05.5,0675.5,31.0
2021-07-17T12:20:00Z,00000200,00000000,0001.00,0000.73,0000.62,0000.89,0000.05,-000.02,0000.17,0000.16,0000.42,17.8,23.9,08.1,05.6,0675.5,31.0
2021-07-17T12:21:00Z,00000200,00000000,0001.26,0000.32,0000.21,0000.27,-000.17,0000.14,-000.09,0000.19,-000.03,17.8,23.9,08.1,05.6,0675.6,31.0
2021-07-17T12:22:00Z,00000200,00000000,0001.39,0000.67,0000.33,-000.11,0000.11,-000.09,0000.90,0000.12,0000.19,17.8,23.9,08.2,05.6,0675.6,31.0
2021-07-17T12:23:00Z,00000200,00000000,0001.26,0000.46,0000.55,-000.12,-000.13,0000.13,-000.08,0000.57,0000.44,17.8,23.9,08.1,05.6,0675.6,31.0
2021-07-17T12:24:00Z,00000200,00000000,0001.65,0000.67,0000.50,-000.09,0000.01,0000.11,0000.11,-000.02,0000.07,17.8,23.9,08.2,05.6,0675.6,30.9
2021-07-17T12:25:00Z,00000200,00000000,0000.98,0000.63,0000.22,0000.20,0000.25,0000.16,0000.12,0000.18,0000.19,17.8,23.9,08.1,05.6,0675.6,30.9
2021-07-17T12:26:00Z,00000200,00010000,0001.49,0000.60,0000.47,0000.33,-000.04,-000.08,-000.23,-000.17,-000.22,17.8,23.9,08.1,05.5,0675.5,30.9
2021-07-17T12:27:00Z,00000200,00000000,0000.96,0000.28,0000.33,0000.89,0000.14,-000.18,0000.51,0000.50,0000.28,17.8,23.9,08.1,05.5,0675.6,30.9
2021-07-17T12:28:00Z,00000200,00000000,0000.70,0000.69,0000.27,0000.64,-000.17,0000.04,-000.09,-000.46,0000.26,17.8,23.9,08.0,05.5,0675.5,31.0
2021-07-17T12:29:00Z,00000200,00000000,0001.01,0000.61,0000.41,-000.24,0000.12,-000.00,0000.22,0000.44,-000.14,17.8,23.9,08.1,05.5,0675.6,31.0
2021-07-17T12:30:00Z,00000200,00000000,0001.26,0000.23,0000.62,0000.16,0000.03,-000.09,0000.57,0000.23,0000.26,17.8,23.9,08.2,05.6,0675.7,31.0
2021-07-17T12:31:00Z,00000200,00000000,0001.27,0000.52,0000.52,0000.47,0000.15,-000.29,-000.31,0000.26,-000.28,17.8,23.9,08.3,05.7,0675.6,31.0
2021-07-17T12:32:00Z,00000200,00000000,0001.12,0000.76,0000.19,0000.14,0000.29,-000.18,0000.42,0000.41,0000.86,17.8,23.9,08.2,05.6,0675.6,31.0
2021-07-17T12:33:00Z,00000200,00000000,0001.82,0000.46,0000.64,0000.10,0000.04,-000.05,0000.22,-000.03,-000.35,17.8,23.9,08.1,05.6,0675.6,30.9
2021-07-17T12:34:00Z,00000200,00000000,0000.94,0000.92,0000.53,-000.05,0000.18,0000.29,0000.09,0000.15,0000.20,17.7,23.9,08.2,05.6,0675.7,31.0
2021-07-17T12:35:00Z,00000200,00000000,0000.96,0000.62,0000.51,0000.35,-000.06,0000.01,0000.63,0000.27,0000.36,17.8,23.9,08.2,05.6,0675.6,30.9
2021-07-17T12:36:00Z,00000200,00000000,0000.90,0000.42,0000.43,0000.01,0000.19,0000.15,0000.25,0000.25,0000.31,17.7,23.9,08.3,05.7,0675.7,30.9
2021-07-17T12:37:00Z,00000200,00000000,0001.69,0000.64,0000.60,0000.51,0000.06,0000.08,-000.09,0000.13,-000.12,17.7,23.9,08.3,05.7,0675.7,31.0
2021-07-17T12:38:00Z,00000200,00000000,0001.30,0000.42,0000.37,0000.07,-000.04,-000.06,0000.34,0000.29,0000.02,17.7,23.9,08.3,05.7,0675.6,30.9
2021-07-17T12:39:00Z,00000200,00000000,0001.32,0000.98,0000.39,0000.33,0000.03,-000.12,0000.12,0000.26,0000.17,17.7,23.9,08.3,05.7,0675.7,30.9
2021-07-17T12:40:00Z,00000200,00000000,0001.41,0000.52,0000.42,0000.09,-000.04,-000.32,0000.41,0000.13,0000.27,17.7,23.9,08.3,05.7,0675.7,30.9
2021-07-17T12:41:00Z,00000200,00000000,0001.39,0000.38,0000.29,0000.32,0000.13,-000.26,-000.43,0000.04,-000.11,17.7,23.9,08.2,05.7,0675.7,30.9
2021-07-17T12:42:00Z,00000200,00000000,0001.25,0000.57,0000.52,0001.03,-000.02,-000.04,0000.43,0000.02,0000.08,17.8,23.9,08.1,05.6,0675.6,30.9
2021-07-17T12:43:00Z,00000200,00000000,0001.45,0000.60,0000.52,-000.15,-000.22,-000.22,0000.26,0000.27,0000.27,17.7,23.9,08.3,05.7,0675.7,30.9
2021-07-17T12:44:00Z,00000200,00000000,0001.03,0000.68,0000.31,0000.30,0000.31,0000.09,0000.20,0000.28,0000.66,17.7,23.9,08.3,05.7,0675.6,30.9
2021-07-17T12:45:00Z,00000200,00000000,0000.85,0000.70,0000.23,0000.56,-000.12,-000.09,0000.06,0000.05,-000.35,17.7,23.9,08.4,05.7,0675.7,31.0
2021-07-17T12:46:00Z,00000200,00000000,0001.26,0000.74,0000.64,-000.33,0000.10,0000.15,0000.10,0000.05,0000.16,17.7,23.9,08.3,05.7,0675.6,31.0
2021-07-17T12:47:00Z,00000200,00000000,0001.02,0000.88,0000.59,-000.09,0000.00,0000.21,0000.14,0000.15,0000.05,17.7,23.9,08.3,05.6,0675.6,30.9
2021-07-17T12:48:00Z,00000200,00000000,0001.85,0000.64,0000.82,0000.11,0000.24,-000.14,0000.42,0000.34,0000.30,17.7,23.9,08.4,05.7,0675.7,30.9
2021-07-17T12:49:00Z,00000200,00000000,0000.96,0000.39,0000.38,-000.15,-000.29,-000.41,-000.17,-000.19,-000.20,17.7,23.9,08.4,05.7,0675.6,30.9
2021-07-17T12:50:00Z,00000200,00000000,0001.01,0000.76,0000.28,-000.12,0000.08,-000.11,0000.71,0000.61,0000.60,17.7,23.9,08.3,05.7,0675.6,30.9
2021-07-17T12:51:00Z,00000200,00000000,0001.58,0000.93,0000.48,0000.50,0000.04,-000.28,0000.30,0000.40,0000.29,17.8,23.9,08.3,05.7,0675.7,30.9
2021-07-17T12:52:00Z,00000200,00000000,0000.93,0000.66,0000.47,-000.10,-000.02,0000.05,0000.49,0000.42,0000.19,17.9,24.0,08.4,05.8,0675.7,31.0
2021-07-17T12:53:00Z,00000200,00000000,0000.95,0000.65,0000.59,0000.66,0000.15,-000.10,-000.01,0000.26,0000.13,17.9,24.0,08.4,05.8,0675.6,31.0
2021-07-17T12:54:00Z,00000200,00000000,0000.98,0000.73,0000.66,0000.51,0000.05,0000.17,0000.38,-000.16,-000.06,18.0,24.0,08.3,05.7,0675.6,31.0
2021-07-17T12:55:00Z,00000200,00000000,0001.39,0000.96,0000.63,0000.05,-000.16,0000.09,0000.29,0000.24,0000.26,18.0,24.1,08.3,05.7,0675.7,31.0
2021-07-17T12:56:00Z,00000200,00000000,0001.65,0000.70,0000.33,0000.37,0000.25,-000.24,0000.04,0000.28,0000.14,18.0,24.1,08.4,05.8,0675.7,31.0
2021-07-17T12:57:00Z,00000200,40000000,,,,,,,0000.06,-000.15,0000.27,18.0,24.1,08.9,06.1,0675.6,31.0
2021-07-17T12:58:00Z,00000200,60000000,,,,,,,-000.14,0000.08,-000.22,17.9,24.2,08.2,05.6,0674.8,31.0
2021-07-17T12:59:00Z,00000200,20000000,,,,,,,-000.14,0000.09,0000.03,17.8,24.3,08.2,05.5,0674.7,31.0
